Location: Betra
(48.4113°N, 8.6634°E)
Time: 13:21:44
(UTC+00:00)

Falconsat - Visible Passes

Search period start: 03 October 2024 00:00
Search period end: 13 October 2024 00:00
Orbit: 742 x 795 km, 100.2° (Epoch: 03 October)

Date Brightness Start Highest point End Pass type
(mag) Time Alt. Az. Time Alt. Az. Time Alt. Az.
03 Oct 12.1 01:08:06 10° ENE 01:09:06 11° NE 01:10:06 10° NE visible
03 Oct 9.5 02:42:05 10° SE 02:46:55 56° ENE 02:51:50 10° N visible
03 Oct 10.1 04:22:22 10° SW 04:26:09 22° W 04:29:58 10° NW visible
03 Oct 11.7 18:06:07 10° N 18:09:53 21° NW 18:13:40 10° WSW visible
04 Oct 10.8 02:07:14 10° ESE 02:11:29 29° ENE 02:15:47 10° N visible
04 Oct 9.2 03:45:28 10° S 03:50:10 43° W 03:54:58 10° NNW visible
04 Oct 10.7 17:29:50 10° N 17:34:33 38° WNW 17:39:18 10° SW visible
05 Oct 11.6 01:33:12 10° E 01:36:14 16° NE 01:39:16 10° NNE visible
05 Oct 8.8 03:09:26 10° SSE 03:14:25 89° W 03:19:28 10° NNW visible
05 Oct 10.6 04:51:48 10° WSW 04:54:00 13° W 04:56:14 10° WNW visible
05 Oct 11.9 18:34:29 10° NNW 18:37:04 14° NW 18:39:40 10° W visible
06 Oct 9.9 02:34:06 10° SE 02:38:50 46° ENE 02:43:37 10° N visible
06 Oct 9.8 04:13:45 10° SSW 04:17:54 26° W 04:22:06 10° NW visible
06 Oct 11.4 17:57:44 10° N 18:01:52 25° WNW 18:06:01 10° WSW visible
07 Oct 11.0 01:59:27 10° ESE 02:03:26 25° ENE 02:07:28 10° N visible
07 Oct 9.0 03:37:07 10° S 03:41:58 54° WSW 03:46:55 10° NNW visible
07 Oct 10.3 17:21:34 10° N 17:26:29 46° WNW 17:31:25 10° SW visible
08 Oct 11.8 01:25:45 10° E 01:28:14 14° NE 01:30:43 10° NNE visible
08 Oct 9.0 03:01:18 10° SSE 03:06:15 76° ENE 03:11:18 10° NNW visible
08 Oct 10.4 04:42:40 10° SW 04:45:42 16° W 04:48:46 10° NW visible
08 Oct 11.8 18:25:54 10° NNW 18:29:04 17° NW 18:32:16 10° W visible
09 Oct 10.3 02:26:09 10° SE 02:30:43 38° ENE 02:35:23 10° N visible
09 Oct 9.6 04:05:12 10° SSW 04:09:38 32° W 04:14:10 10° NW visible
09 Oct 11.1 17:49:23 10° N 17:53:49 30° WNW 17:58:16 10° WSW visible
10 Oct 11.3 01:51:43 10° ESE 01:55:23 21° NE 01:59:06 10° N visible
10 Oct 8.8 03:28:50 10° S 03:33:46 67° WSW 03:38:49 10° NNW visible
10 Oct 9.9 17:13:19 10° N 17:18:23 56° WNW 17:23:27 10° SW visible
10 Oct 12.1 18:54:49 10° NNW 18:56:11 11° NW 18:57:33 10° WNW visible
11 Oct 12.0 01:18:31 10° ENE 01:20:14 12° NE 01:21:57 10° NNE visible
11 Oct 9.4 02:53:12 10° SSE 02:58:06 62° ENE 03:03:06 10° N visible
11 Oct 10.2 04:33:47 10° SW 04:37:23 20° W 04:41:04 10° NW visible
11 Oct 11.7 18:17:24 10° N 18:21:04 20° NW 18:24:43 10° W visible
12 Oct 10.6 02:18:14 10° ESE 02:22:37 32° ENE 02:27:05 10° N visible
12 Oct 9.3 03:56:43 10° S 04:01:23 40° W 04:06:09 10° NNW visible
12 Oct 10.8 17:41:04 10° N 17:45:44 35° WNW 17:50:26 10° SW visible
